Weather History for Elbow Lake, MN

Change the Weather History Date:

Wednesday, February 13, 2013

  Actual Average (KFFM) Record (KFFM)
Temperature  
Mean Temperature 20 °F -  
Max Temperature 30 °F 22 °F 44 °F (2002)
Min Temperature 10 °F 0 °F -25 °F (1951)
Degree Days  
Heating Degree Days 45    
Moisture  
Dew Point 22 °F    
Average Humidity 95    
Maximum Humidity 100    
Minimum Humidity 80    
Precipitation  
Precipitation 0.09 in - - ()
Sea Level Pressure  
Sea Level Pressure 29.65 in    
Wind  
Wind Speed 5 mph (SW)    
Max Wind Speed 12 mph    
Max Gust Speed -    
Visibility 5 miles    
Events Fog , Snow    
Averages and records for this station are not official NWS values.
T = Trace of Precipitation, MM = Missing Value Source: NWS Daily Summary

Daily Weather History Graph

Daily Weather History Graph

Search for Another Location

Airport:

Trip Planner

Search our weather history database for the weather conditions in past years. The results will help you decide how hot, cold, wet, or windy it might be!

Date:

Astronomy

Feb. 13, 2013 Rise Set
Actual Time 7:29 AM CST 5:47 PM CST
Civil Twilight 6:58 AM CST 6:18 PM CST
Nautical Twilight 6:23 AM CST 6:53 PM CST
Astronomical Twilight 5:48 AM CST 7:28 PM CST
Moon 8:44 AM CST (2/13) 10:08 PM CST (2/13)
Length of Visible Light 11h 20m
Length of Day
10h 18m
Waxing Crescent, 14% of the Moon is Illuminated
Feb 13
Waxing Crescent
Feb 17
First Quarter
Feb 25
Full
Mar 4
Last Quarter
Mar 11
New

Hourly Weather History & Observations

Time (CST) Temp. Windchill Dew Point Humidity Pressure Visibility Wind Dir Wind Speed Gust Speed Precip Events Conditions
12:15 AM 10.4 °F 2.2 °F 8.6 °F 92% 29.76 in 0.8 mi SW 4.6 mph - N/A   Mist
12:35 AM 12.2 °F 2.9 °F 10.4 °F 92% 29.76 in 0.2 mi WSW 5.8 mph - N/A Fog Light Freezing Fog
12:55 AM 14.0 °F 6.5 °F 12.2 °F 93% 29.76 in 1.5 mi West 4.6 mph - N/A   Mist
1:15 AM 12.2 °F 2.9 °F 12.2 °F 100% 29.76 in 0.8 mi WSW 5.8 mph - N/A   Mostly Cloudy
1:35 AM 14.0 °F 8.2 °F 12.2 °F 93% 29.75 in 1.2 mi SW 3.5 mph - N/A   Overcast
1:55 AM 15.8 °F 7.2 °F 14.0 °F 93% 29.76 in 3.0 mi WSW 5.8 mph - N/A   Overcast
2:15 AM 14.0 °F 6.5 °F 14.0 °F 100% 29.75 in 4.0 mi WSW 4.6 mph - N/A   Overcast
2:35 AM 17.6 °F 10.7 °F 14.0 °F 86% 29.75 in 7.0 mi WSW 4.6 mph - N/A   Overcast
2:55 AM 17.6 °F 10.7 °F 15.8 °F 93% 29.74 in 7.0 mi SSW 4.6 mph - N/A   Overcast
3:15 AM 17.6 °F 10.7 °F 15.8 °F 93% 29.74 in 10.0 mi South 4.6 mph - N/A   Overcast
3:35 AM 19.4 °F 10.4 °F 17.6 °F 93% 29.73 in 10.0 mi South 6.9 mph - N/A   Overcast
3:55 AM 19.4 °F 10.4 °F 17.6 °F 93% 29.72 in 10.0 mi South 6.9 mph - N/A   Overcast
4:15 AM 19.4 °F 10.4 °F 17.6 °F 93% 29.71 in 10.0 mi South 6.9 mph - N/A   Overcast
4:35 AM 19.4 °F 10.4 °F 17.6 °F 93% 29.70 in 10.0 mi SSE 6.9 mph - N/A   Overcast
4:55 AM 19.4 °F 12.8 °F 19.4 °F 100% 29.70 in 10.0 mi SE 4.6 mph - N/A   Overcast
5:15 AM 21.2 °F 13.6 °F 19.4 °F 93% 29.70 in 10.0 mi SSE 5.8 mph - N/A   Overcast
5:35 AM 21.2 °F 13.6 °F 19.4 °F 93% 29.69 in 10.0 mi South 5.8 mph - N/A   Overcast
5:55 AM 19.4 °F 10.4 °F 17.6 °F 93% 29.69 in 10.0 mi South 6.9 mph - N/A   Mostly Cloudy
6:15 AM 17.6 °F 8.2 °F 15.8 °F 93% 29.69 in 10.0 mi South 6.9 mph - N/A   Scattered Clouds
6:35 AM 19.4 °F 11.5 °F 17.6 °F 93% 29.68 in 10.0 mi South 5.8 mph - N/A   Clear
6:55 AM 19.4 °F 11.5 °F 19.4 °F 100% 29.68 in 10.0 mi South 5.8 mph - N/A   Clear
7:15 AM 17.6 °F 9.3 °F 15.8 °F 93% 29.68 in 10.0 mi SSW 5.8 mph - N/A   Clear
7:35 AM 17.6 °F 10.7 °F 17.6 °F 100% 29.67 in 7.0 mi SSW 4.6 mph - N/A   Clear
7:55 AM 17.6 °F 10.7 °F 15.8 °F 93% 29.67 in 4.0 mi South 4.6 mph - N/A   Clear
8:15 AM 17.6 °F 9.3 °F 17.6 °F 100% 29.67 in 3.0 mi SSW 5.8 mph - N/A   Clear
8:35 AM 17.6 °F 9.3 °F 15.8 °F 93% 29.67 in 2.0 mi SSW 5.8 mph - N/A   Clear
8:55 AM 17.6 °F 9.3 °F 15.8 °F 93% 29.67 in 3.0 mi SSW 5.8 mph - N/A   Clear
9:15 AM 17.6 °F 12.3 °F 17.6 °F 100% 29.66 in 3.0 mi South 3.5 mph - N/A   Clear
9:35 AM 19.4 °F 14.3 °F 19.4 °F 100% 29.65 in 7.0 mi South 3.5 mph - N/A   Clear
10:15 AM 21.2 °F 16.4 °F 19.4 °F 93% 29.65 in 10.0 mi South 3.5 mph - N/A   Scattered Clouds
10:35 AM 21.2 °F 14.9 °F 19.4 °F 93% 29.65 in 10.0 mi SSW 4.6 mph - N/A   Scattered Clouds
10:55 AM 23.0 °F 17.0 °F 21.2 °F 93% 29.65 in 10.0 mi SSW 4.6 mph - N/A   Scattered Clouds
11:15 AM 23.0 °F 18.4 °F 23.0 °F 100% 29.65 in 10.0 mi WSW 3.5 mph - N/A   Mostly Cloudy
11:35 AM 28.4 °F 24.6 °F 23.0 °F 80% 29.64 in 10.0 mi WSW 3.5 mph - N/A   Mostly Cloudy
11:55 AM 28.4 °F 23.3 °F 23.0 °F 80% 29.63 in 10.0 mi WSW 4.6 mph - N/A   Overcast
12:15 PM 28.4 °F 22.2 °F 23.0 °F 80% 29.63 in 10.0 mi WSW 5.8 mph - N/A   Overcast
12:35 PM 28.4 °F 24.6 °F 23.0 °F 80% 29.62 in 10.0 mi WSW 3.5 mph - N/A   Overcast
12:55 PM 28.4 °F 24.6 °F 23.0 °F 80% 29.61 in 10.0 mi SW 3.5 mph - N/A   Overcast
1:15 PM 28.4 °F - 23.0 °F 80% 29.60 in 2.5 mi Calm Calm - N/A Snow Light Snow
1:35 PM 28.4 °F - 24.8 °F 86% 29.59 in 1.5 mi Calm Calm - N/A Snow Light Snow
1:55 PM 28.4 °F 24.6 °F 26.6 °F 93% 29.58 in 1.5 mi SE 3.5 mph - N/A Snow Light Snow
2:15 PM 28.4 °F 23.3 °F 26.6 °F 93% 29.57 in 1.5 mi SE 4.6 mph - N/A Snow Light Snow
2:35 PM 28.4 °F 22.2 °F 26.6 °F 93% 29.57 in 1.5 mi SE 5.8 mph - N/A Snow Light Snow
2:55 PM 28.4 °F 23.3 °F 28.4 °F 100% 29.56 in 1.2 mi ESE 4.6 mph - N/A Snow Light Snow
3:15 PM 30.2 °F 24.3 °F 28.4 °F 93% 29.56 in 0.8 mi East 5.8 mph - N/A Snow Light Snow
3:35 PM 28.4 °F 22.2 °F 28.4 °F 100% 29.56 in 0.8 mi ESE 5.8 mph - 0.01 in Snow Snow
3:55 PM 28.4 °F 22.2 °F 28.4 °F 100% 29.56 in 0.8 mi ESE 5.8 mph - 0.03 in Snow Light Snow
4:15 PM 30.2 °F 25.4 °F 28.4 °F 93% 29.55 in 0.8 mi ESE 4.6 mph - N/A Snow Light Snow
4:35 PM 30.2 °F - 28.4 °F 93% 29.56 in 0.8 mi Calm Calm - 0.01 in Snow Light Snow
4:55 PM 30.2 °F 25.4 °F 28.4 °F 93% 29.56 in 0.5 mi South 4.6 mph - 0.03 in Snow Light Snow
5:15 PM 28.4 °F - 28.4 °F 100% 29.56 in 0.5 mi Calm Calm - 0.01 in Snow Light Snow
5:35 PM 28.4 °F - 28.4 °F 100% 29.56 in 0.5 mi Calm Calm - 0.02 in Snow Light Snow
5:55 PM 28.4 °F - 28.4 °F 100% 29.57 in 1.0 mi Calm Calm - 0.02 in Snow Light Snow
6:15 PM 28.4 °F 23.3 °F 28.4 °F 100% 29.57 in 1.0 mi NNE 4.6 mph - 0.01 in Snow Light Snow
6:35 PM 28.4 °F 22.2 °F 28.4 °F 100% 29.58 in 1.0 mi North 5.8 mph - 0.01 in Snow Snow
6:55 PM 28.4 °F 21.2 °F 28.4 °F 100% 29.58 in 1.5 mi North 6.9 mph - 0.01 in Snow Light Snow
7:15 PM 28.4 °F 19.7 °F 28.4 °F 100% 29.59 in 2.5 mi North 9.2 mph - N/A Snow Light Snow
7:35 PM 28.4 °F 19.1 °F 28.4 °F 100% 29.59 in 1.5 mi North 10.4 mph - N/A Snow Light Snow
7:55 PM 28.4 °F 19.1 °F 28.4 °F 100% 29.60 in 2.5 mi North 10.4 mph - N/A Snow Light Snow
8:15 PM 28.4 °F 19.7 °F 28.4 °F 100% 29.61 in 3.0 mi North 9.2 mph - N/A Snow Light Snow
8:35 PM 28.4 °F 19.7 °F 28.4 °F 100% 29.62 in 3.0 mi North 9.2 mph - N/A Snow Light Snow
8:55 PM 28.4 °F 19.7 °F 28.4 °F 100% 29.62 in 3.0 mi NNW 9.2 mph - N/A Snow Light Snow
9:15 PM 28.4 °F 19.7 °F 28.4 °F 100% 29.63 in 2.5 mi NNW 9.2 mph - N/A Snow Light Snow
9:35 PM 28.4 °F 18.5 °F 28.4 °F 100% 29.64 in 2.0 mi NNW 11.5 mph - N/A Snow Light Snow
9:55 PM 28.4 °F 19.1 °F 28.4 °F 100% 29.65 in 2.5 mi NNW 10.4 mph - N/A Snow Light Snow
10:15 PM 28.4 °F 19.1 °F 28.4 °F 100% 29.65 in 2.5 mi NNW 10.4 mph - N/A Snow Light Snow
10:35 PM 28.4 °F 19.1 °F 28.4 °F 100% 29.67 in 3.0 mi NNW 10.4 mph - N/A Snow Light Snow
10:55 PM 28.4 °F 19.1 °F 26.6 °F 93% 29.67 in 4.0 mi NNW 10.4 mph - N/A Snow Light Snow
11:15 PM 26.6 °F 16.2 °F 26.6 °F 100% 29.68 in 7.0 mi NNW 11.5 mph - N/A   Mostly Cloudy
11:35 PM 26.6 °F 16.8 °F 24.8 °F 93% 29.69 in 10.0 mi NW 10.4 mph - N/A   Mostly Cloudy
11:55 PM 24.8 °F 14.0 °F 23.0 °F 93% 29.70 in 10.0 mi NW 11.5 mph - N/A   Overcast